Change the Weather History Date:

Wednesday, December 18, 2013

  Actual Average Record
Temperature  
Mean Temperature 20 °F -  
Max Temperature 35 °F 25 °F 48 °F (2011)
Min Temperature 6 °F 8 °F -29 °F (1983)
Degree Days  
Heating Degree Days 44    
Moisture  
Dew Point 20 °F    
Average Humidity 85    
Maximum Humidity 100    
Minimum Humidity 69    
Precipitation  
Precipitation 0.00 in - - ()
Sea Level Pressure  
Sea Level Pressure 29.74 in    
Wind  
Wind Speed 5 mph (SSW)    
Max Wind Speed 12 mph    
Max Gust Speed 16 mph    
Visibility 10 miles    
Events      
Averages and records for this station are not official NWS values.
T = Trace of Precipitation, MM = Missing Value Source: NWS Daily Summary

Daily Weather History Graph

Daily Weather History Graph

Search for Another Location

Airport or City:

Trip Planner

Search our weather history database for the weather conditions in past years. The results will help you decide how hot, cold, wet, or windy it might be!

Date:

Astronomy

Dec. 18, 2013 Rise Set
Actual Time 7:52 AM CST 4:37 PM CST
Civil Twilight 7:18 AM CST 5:11 PM CST
Nautical Twilight 6:40 AM CST 5:48 PM CST
Astronomical Twilight 6:04 AM CST 6:24 PM CST
Moon 6:14 PM CST (12/18) 8:28 AM CST (12/18)
Length of Visible Light 9h 53m
Length of Day
8h 45m
Full, 98% of the Moon is Illuminated
Dec 18
Full
Dec 25
Last Quarter
Jan 1
New
Jan 7
First Quarter
Jan 15
Full

Hourly Weather History & Observations

Time (CST) Temp. Windchill Dew Point Humidity Pressure Visibility Wind Dir Wind Speed Gust Speed Precip Events Conditions
12:12 AM 6.8 °F - 6.8 °F 100% 30.02 in 10.0 mi Calm Calm - N/A   Clear
12:33 AM 8.6 °F - 6.8 °F 92% 30.01 in 10.0 mi Calm Calm - N/A   Clear
12:53 AM 6.8 °F - 6.8 °F 100% 30.00 in 10.0 mi Calm Calm - N/A   Clear
1:12 AM 6.8 °F -2.0 °F 5.0 °F 92% 29.99 in 10.0 mi ESE 4.6 mph - N/A   Scattered Clouds
1:33 AM 8.6 °F 0.1 °F 6.8 °F 92% 29.98 in 10.0 mi ESE 4.6 mph - N/A   Overcast
1:53 AM 8.6 °F 2.0 °F 8.6 °F 100% 29.97 in 10.0 mi ESE 3.5 mph - N/A   Mostly Cloudy
2:12 AM 8.6 °F -1.3 °F 6.8 °F 92% 29.96 in 10.0 mi ESE 5.8 mph - N/A   Scattered Clouds
2:33 AM 8.6 °F -1.3 °F 6.8 °F 92% 29.96 in 10.0 mi ESE 5.8 mph - N/A   Clear
2:53 AM 8.6 °F - 6.8 °F 92% 29.94 in 10.0 mi North - - N/A   Clear
3:12 AM 10.4 °F -0.4 °F 8.6 °F 92% 29.93 in 10.0 mi SE 6.9 mph - N/A   Clear
3:33 AM 10.4 °F -0.4 °F 10.4 °F 100% 29.91 in 10.0 mi SE 6.9 mph - N/A   Clear
3:53 AM 12.2 °F 1.7 °F 10.4 °F 92% 29.89 in 10.0 mi SE 6.9 mph - N/A   Clear
4:12 AM 12.2 °F 0.7 °F 12.2 °F 100% 29.87 in 10.0 mi SE 8.1 mph - N/A   Clear
4:33 AM 14.0 °F 2.0 °F 12.2 °F 93% 29.85 in 10.0 mi SE 9.2 mph - N/A   Clear
4:53 AM 15.8 °F 5.1 °F 14.0 °F 93% 29.83 in 10.0 mi SE 8.1 mph - N/A   Clear
5:12 AM 15.8 °F 4.2 °F 14.0 °F 93% 29.81 in 10.0 mi SE 9.2 mph - N/A   Clear
5:33 AM 15.8 °F 5.1 °F 15.8 °F 100% 29.80 in 10.0 mi SE 8.1 mph - N/A   Clear
5:53 AM 17.6 °F 7.3 °F 15.8 °F 93% 29.79 in 10.0 mi SE 8.1 mph - N/A   Clear
6:12 AM 17.6 °F 5.7 °F 15.8 °F 93% 29.77 in 10.0 mi SE 10.4 mph - N/A   Clear
6:33 AM 19.4 °F 8.6 °F 15.8 °F 86% 29.76 in 10.0 mi SE 9.2 mph - N/A   Scattered Clouds
6:53 AM 19.4 °F 7.9 °F 14.0 °F 80% 29.74 in 10.0 mi SE 10.4 mph - N/A   Scattered Clouds
7:13 AM 21.2 °F 10.9 °F 14.0 °F 74% 29.72 in 10.0 mi SE 9.2 mph - N/A   Clear
7:32 AM 21.2 °F 10.9 °F 14.0 °F 74% 29.71 in 10.0 mi SE 9.2 mph - N/A   Clear
7:53 AM 21.2 °F 10.9 °F 14.0 °F 74% 29.70 in 10.0 mi SSE 9.2 mph - N/A   Clear
8:13 AM 21.2 °F 11.7 °F 14.0 °F 74% 29.69 in 10.0 mi SSE 8.1 mph - N/A   Clear
8:32 AM 23.0 °F 14.7 °F 15.8 °F 74% 29.67 in 10.0 mi SSE 6.9 mph 16.1 mph N/A   Clear
8:53 AM 24.8 °F 19.1 °F 15.8 °F 69% 29.69 in 10.0 mi South 4.6 mph - N/A   Clear
9:13 AM 24.8 °F 19.1 °F 17.6 °F 74% 29.68 in 10.0 mi SSE 4.6 mph - N/A   Clear
9:32 AM 24.8 °F 19.1 °F 17.6 °F 74% 29.67 in 10.0 mi SSE 4.6 mph - N/A   Clear
9:53 AM 26.6 °F 22.6 °F 17.6 °F 69% 29.68 in 10.0 mi South 3.5 mph - N/A   Clear
10:13 AM 26.6 °F 22.6 °F 19.4 °F 74% 29.68 in 10.0 mi SSE 3.5 mph - N/A   Clear
10:32 AM 26.6 °F 22.6 °F 19.4 °F 74% 29.67 in 10.0 mi South 3.5 mph - N/A   Clear
10:53 AM 26.6 °F 20.0 °F 19.4 °F 74% 29.66 in 10.0 mi South 5.8 mph - N/A   Clear
11:13 AM 26.6 °F 21.2 °F 21.2 °F 80% 29.65 in 10.0 mi South 4.6 mph - N/A   Clear
11:32 AM 26.6 °F 22.6 °F 21.2 °F 80% 29.64 in 10.0 mi SSW 3.5 mph - N/A   Clear
11:53 AM 28.4 °F 23.3 °F 21.2 °F 74% 29.64 in 10.0 mi SSW 4.6 mph - N/A   Clear
12:12 PM 28.4 °F 24.6 °F 23.0 °F 80% 29.63 in 10.0 mi SSW 3.5 mph - N/A   Clear
12:33 PM 30.2 °F 25.4 °F 24.8 °F 80% 29.63 in 10.0 mi SW 4.6 mph - N/A   Clear
12:53 PM 30.2 °F - 24.8 °F 80% 29.63 in 10.0 mi Calm Calm - N/A   Clear
1:12 PM 32.0 °F 27.5 °F 24.8 °F 75% 29.62 in 10.0 mi SW 4.6 mph - N/A   Clear
1:33 PM 33.8 °F 27.7 °F 26.6 °F 75% 29.63 in 10.0 mi WSW 6.9 mph - N/A   Clear
1:53 PM 33.8 °F 29.6 °F 26.6 °F 75% 29.62 in 10.0 mi WSW 4.6 mph - N/A   Clear
2:12 PM 33.8 °F 29.6 °F 26.6 °F 75% 29.62 in 10.0 mi WSW 4.6 mph - N/A   Clear
2:33 PM 33.8 °F 28.6 °F 26.6 °F 75% 29.62 in 10.0 mi West 5.8 mph - N/A   Clear
2:53 PM 35.6 °F 31.7 °F 26.6 °F 70% 29.63 in 10.0 mi West 4.6 mph - N/A   Clear
3:12 PM 35.6 °F 31.7 °F 26.6 °F 70% 29.63 in 10.0 mi West 4.6 mph - N/A   Clear
3:33 PM 35.6 °F 32.8 °F 26.6 °F 70% 29.64 in 10.0 mi WSW 3.5 mph - N/A   Clear
3:52 PM 33.8 °F - 26.6 °F 75% 29.64 in 10.0 mi Calm Calm - N/A   Clear
4:13 PM 33.8 °F - 28.4 °F 81% 29.64 in 10.0 mi Calm Calm - N/A   Clear
4:33 PM 33.8 °F - 28.4 °F 81% 29.64 in 10.0 mi Calm Calm - N/A   Clear
4:52 PM 33.8 °F - 28.4 °F 81% 29.64 in 10.0 mi Calm Calm - N/A   Clear
5:13 PM 32.0 °F 28.7 °F 28.4 °F 87% 29.65 in 10.0 mi SW 3.5 mph - N/A   Clear
5:33 PM 32.0 °F 28.7 °F 28.4 °F 87% 29.65 in 10.0 mi SW 3.5 mph - N/A   Clear
5:52 PM 30.2 °F 26.7 °F 28.4 °F 93% 29.66 in 10.0 mi SW 3.5 mph - N/A   Clear
6:13 PM 30.2 °F 26.7 °F 26.6 °F 86% 29.67 in 10.0 mi SW 3.5 mph - N/A   Clear
6:33 PM 30.2 °F - 28.4 °F 93% 29.67 in 10.0 mi Calm Calm - N/A   Clear
6:52 PM 30.2 °F 26.7 °F 28.4 °F 93% 29.67 in 10.0 mi WSW 3.5 mph - N/A   Clear
7:13 PM 30.2 °F 25.4 °F 26.6 °F 86% 29.68 in 10.0 mi West 4.6 mph - N/A   Clear
7:32 PM 28.4 °F - 26.6 °F 93% 29.69 in 10.0 mi Calm Calm - N/A   Clear
7:53 PM 30.2 °F 26.7 °F 26.6 °F 86% 29.69 in 10.0 mi WSW 3.5 mph - N/A   Clear
8:13 PM 28.4 °F 24.6 °F 26.6 °F 93% 29.70 in 10.0 mi West 3.5 mph - N/A   Clear
8:32 PM 28.4 °F 23.3 °F 26.6 °F 93% 29.71 in 10.0 mi West 4.6 mph - N/A   Clear
8:53 PM 28.4 °F 23.3 °F 26.6 °F 93% 29.72 in 10.0 mi WSW 4.6 mph - N/A   Clear
9:13 PM 28.4 °F 23.3 °F 26.6 °F 93% 29.73 in 10.0 mi West 4.6 mph - N/A   Clear
9:32 PM 28.4 °F 21.2 °F 26.6 °F 93% 29.74 in 10.0 mi WNW 6.9 mph - N/A   Clear
9:53 PM 28.4 °F 19.7 °F 26.6 °F 93% 29.76 in 10.0 mi WNW 9.2 mph - N/A   Clear
10:13 PM 28.4 °F 19.1 °F 26.6 °F 93% 29.77 in 10.0 mi WNW 10.4 mph 16.1 mph N/A   Clear
10:32 PM 28.4 °F 18.5 °F 24.8 °F 86% 29.78 in 10.0 mi NW 11.5 mph - N/A   Clear
10:53 PM 26.6 °F 16.2 °F 23.0 °F 86% 29.79 in 10.0 mi NW 11.5 mph - N/A   Clear
11:13 PM 26.6 °F 17.5 °F 21.2 °F 80% 29.80 in 10.0 mi NW 9.2 mph - N/A   Clear
11:32 PM 24.8 °F 14.6 °F 21.2 °F 86% 29.80 in 10.0 mi NW 10.4 mph - N/A   Clear
11:53 PM 24.8 °F 14.0 °F 21.2 °F 86% 29.82 in 10.0 mi NW 11.5 mph - N/A   Clear